"TOA5","AWS1","CR1000","7964","CR1000.Std.14","CPU:AWS1_114.CR1","64363","TBL110"
"TIMESTAMP","RECORD","Wind_spd_WVc(1)","Wind_spd_WVc(2)","Air_Temp_Avg","Humidity_Avg","SW_upper_Wm2_Avg","Rain_Tot","Press_Avg","Issui_Tot","Depth_cm","SR50A_Raw","Quality","Ground_Temp_Avg(1)","Ground_Temp_Avg(2)","SW_lower_Wm2_Avg","Albedo_Avg","SWC_per(1)","SWC_per(2)","Period(1)","Period(2)"
"TS","RN","","","","","","","","","","","","","","","","","","",""
"","","WVc","WVc","Avg","Avg","Avg","Tot","Avg","Tot","Smp","Smp","Smp","Avg","Avg","Avg","Avg","Smp","Smp","Smp","Smp"
"2016-07-07 00:00:00",243133,0.093,349.4,18.3,96.6,0.08253575,0,870.6378,0,-1.062,3.09,201,20.27,19.52,0.3145312,0.739,49.95,57.45,33.28,35.09
"2016-07-07 00:10:00",243134,0,0,18.19,100,0,0,870.6529,0,-1.285,3.091,201,20.17,19.51,0.07958035,0,49.95,57.39,33.28,35.07
"2016-07-07 00:20:00",243135,0.003,116.3,17.93,100,0,0,870.6414,0,-1.079,3.092,202,20.17,19.49,0.01136862,0,49.95,57.39,33.28,35.07
"2016-07-07 00:30:00",243136,0,0,17.77,100,0,0,870.6156,0,-0.872,3.09,195,20.23,19.5,0,0,49.95,57.39,33.28,35.07
"2016-07-07 00:40:00",243137,0.035,169,17.76,100,0,0,870.533,0,-1.436,3.095,204,20.2,19.5,0.06821174,0,49.95,57.39,33.28,35.07
"2016-07-07 00:50:00",243138,0.094,296.4,17.97,100,0,0,870.414,0,-1.34,3.092,202,20.12,19.49,0.5987474,0,49.95,57.45,33.28,35.09
"2016-07-07 01:00:00",243139,0.383,42.59,18.12,100,0,0,870.4044,0,-1.428,3.094,219,20.06,19.5,0.7200128,0,49.95,57.39,33.28,35.07
"2016-07-07 01:10:00",243140,0.38,173.2,17.9,100,0,0,870.3891,0,-1.516,3.096,213,20.07,19.49,0.4357972,0,49.95,57.39,33.28,35.07
"2016-07-07 01:20:00",243141,0.071,304.1,17.98,100,0,0,870.3862,0,-0.602,3.086,240,20.1,19.5,0.4964299,0,49.95,57.39,33.28,35.07
"2016-07-07 01:30:00",243142,0.046,15.96,17.92,100,0,0.5,870.3741,0,-0.071,3.082,221,20.13,19.52,0.3789541,0,49.95,57.39,33.28,35.07
"2016-07-07 01:40:00",243143,0,0,17.8,100,0,0,870.3665,0,-1.823,3.099,238,20.13,19.52,0.4092685,0,49.9,57.39,33.27,35.07
"2016-07-07 01:50:00",243144,0.076,304.1,17.74,100,0,0.5,870.3262,0,-2.006,3.101,253,20.02,19.53,0.3713705,0,49.95,57.33,33.28,35.06
"2016-07-07 02:00:00",243145,0.031,247.5,17.77,100,0,0,870.3058,0,-1.64,3.097,258,19.97,19.53,0.4433682,0,49.9,57.39,33.27,35.07
"2016-07-07 02:10:00",243146,0.074,282.4,17.76,100,0,0,870.3815,0,-3.038,3.111,222,19.97,19.53,0.4547397,0,49.95,57.39,33.28,35.07
"2016-07-07 02:20:00",243147,0.104,331.4,17.83,100,0,0,870.3801,0,-1.64,3.097,228,20.02,19.53,0.5381087,0,49.95,57.33,33.28,35.06
"2016-07-07 02:30:00",243148,0.205,281.3,17.81,100,0,0,870.3754,0,-0.609,3.087,226,20.02,19.53,0.5115815,0,49.95,57.33,33.28,35.06
"2016-07-07 02:40:00",243149,0.089,271.4,17.79,100,0,0,870.3776,0,-1.49,3.096,208,19.97,19.53,0.4812683,0,49.95,57.33,33.28,35.06
"2016-07-07 02:50:00",243150,0.332,5.149,17.84,100,0,0,870.4159,0,-0.91,3.089,212,19.95,19.53,0.8564237,0,49.95,57.33,33.28,35.06
"2016-07-07 03:00:00",243151,0.509,358.7,18.06,100,0,0,870.4216,0,-1.061,3.09,207,19.9,19.53,1.008009,0,49.95,57.33,33.28,35.06
"2016-07-07 03:10:00",243152,0.293,25.02,17.97,100,0,0,870.3896,0,-0.705,3.087,203,19.89,19.52,0.8299071,0,49.95,57.33,33.28,35.06
"2016-07-07 03:20:00",243153,0.171,118.9,17.95,100,0,0,870.6356,0,-1.197,3.092,202,19.91,19.49,0.7238018,0,49.95,57.33,33.28,35.06
"2016-07-07 03:30:00",243154,0.09,227.7,17.95,100,0,0,870.6492,0,-1.333,3.094,202,19.94,19.47,0.5684311,0,49.95,57.33,33.28,35.06
"2016-07-07 03:40:00",243155,0.069,5.285,17.8,100,0,0,870.6035,0,-2.237,3.103,212,19.96,19.45,0.41306,0,49.95,57.33,33.28,35.06
"2016-07-07 03:50:00",243156,0.099,306.7,17.67,100,0,1.5,870.5443,0,-40.86,3.478,298,19.9,19.45,0.2766365,0,49.95,57.33,33.28,35.06
"2016-07-07 04:00:00",243157,0.052,24.66,17.66,100,0,0,870.4688,0,-5.468,3.135,268,19.85,19.44,0.231162,0,50.01,57.33,33.3,35.06
"2016-07-07 04:10:00",243158,0.103,117.5,17.66,100,0,0,870.4003,0,-7.325,3.153,193,19.81,19.42,0.2993737,0,50.06,57.33,33.31,35.06
"2016-07-07 04:20:00",243159,0.26,111,17.7,100,0,0,870.3749,0,-6.596,3.145,196,19.83,19.4,0.6896964,0,50.06,57.33,33.31,35.06
"2016-07-07 04:30:00",243160,0.331,239.3,17.75,100,0,0,870.3804,0,-2.936,3.11,310,19.88,19.4,0.9284375,0,50.11,57.33,33.33,35.06
"2016-07-07 04:40:00",243161,0.301,211.2,17.72,100,0.06681396,0,870.3864,0,-3.704,3.117,230,19.88,19.41,1.030743,0.34,50.17,57.33,33.34,35.06
"2016-07-07 04:50:00",243162,0.478,249.9,17.74,100,3.820204,0,870.4074,0,-2.515,3.105,277,19.83,19.41,1.834122,0.542,50.22,57.39,33.35,35.07
"2016-07-07 05:00:00",243163,0.308,352.4,17.79,100,8.096356,0,870.4008,0,-4.866,3.128,201,19.79,19.42,2.482141,0.31,50.22,57.33,33.35,35.06
"2016-07-07 05:10:00",243164,0.857,316.4,17.94,100,11.67293,0,870.444,0,-0.348,3.084,262,19.73,19.42,2.948261,0.256,50.22,57.33,33.35,35.06
"2016-07-07 05:20:00",243165,0.805,325.1,18.07,99.7,18.378,0,870.4238,0,0.177,3.078,291,19.73,19.43,3.850173,0.212,50.22,57.33,33.35,35.06
"2016-07-07 05:30:00",243166,0.452,322.3,18.06,99.5,29.10768,0,870.4029,0,-3.898,3.117,213,19.76,19.44,5.134828,0.177,50.28,57.45,33.37,35.09
"2016-07-07 05:40:00",243167,0.618,248.8,18.04,99.2,35.80881,0,870.407,0,-3.032,3.11,215,19.73,19.45,5.888947,0.164,50.28,57.39,33.37,35.07
"2016-07-07 05:50:00",243168,0.559,234.3,17.96,99.9,31.00601,0,870.2726,0,-3.81,3.118,226,19.71,19.45,4.861981,0.157,50.22,57.39,33.35,35.07
"2016-07-07 06:00:00",243169,0.479,351.9,18.08,98.1,27.56701,0,870.3074,0,-4.153,3.119,208,19.7,19.45,4.509553,0.165,50.28,57.39,33.37,35.07
"2016-07-07 06:10:00",243170,0.597,267,18.18,95.9,17.14783,0,870.3395,0,-2.159,3.099,236,19.65,19.45,3.232479,0.189,50.28,57.39,33.37,35.07
"2016-07-07 06:20:00",243171,0.573,345.1,18.47,90.1,38.28882,0,870.3968,0,-1.555,3.092,242,19.63,19.44,6.230005,0.168,50.28,57.45,33.37,35.09
"2016-07-07 06:30:00",243172,0.85,10.67,18.51,89.9,87.99905,0,870.3762,0,-1.555,3.092,222,19.63,19.44,12.92233,0.147,50.28,57.45,33.37,35.09
"2016-07-07 06:40:00",243173,0.42,178.8,18.65,89.3,90.32185,0,870.3828,0,-2.072,3.097,213,19.65,19.44,13.24445,0.146,50.28,57.45,33.37,35.09
"2016-07-07 06:50:00",243174,0.405,163.2,18.65,90,123.0493,0,870.194,0,-1.865,3.095,213,19.66,19.43,17.72747,0.144,50.28,57.45,33.37,35.09
"2016-07-07 07:00:00",243175,0.884,289.2,18.75,88.3,129.7347,0,870.1882,0,-2.167,3.097,208,19.64,19.42,18.86812,0.145,50.28,57.51,33.37,35.1
"2016-07-07 07:10:00",243176,0.633,237,18.83,87.2,104.3638,0,870.3557,0,-1.647,3.092,234,19.62,19.4,14.73739,0.141,50.28,57.45,33.37,35.09
"2016-07-07 07:20:00",243177,0.513,203.7,18.76,89.3,96.13012,0,870.3515,0,-1.88,3.095,249,19.61,19.36,12.91793,0.134,50.22,57.45,33.35,35.09
"2016-07-07 07:30:00",243178,0.388,241.3,18.52,94.9,105.0974,0,870.4006,0,-1.99,3.097,219,19.6,19.32,14.22888,0.135,50.28,57.45,33.37,35.09
"2016-07-07 07:40:00",243179,0.142,217.4,18.71,95.7,140.9329,0,870.5728,0,0.46,3.071,441,19.57,19.27,19.56388,0.139,50.28,57.45,33.37,35.09
"2016-07-07 07:50:00",243180,0.432,187.8,18.74,98.1,188.5949,0,870.5806,0,-2.157,3.097,284,19.56,19.27,24.49788,0.131,50.28,57.51,33.37,35.1
"2016-07-07 08:00:00",243181,0.268,207.6,18.79,98.6,192.8221,0.5,870.5999,0,-0.803,3.083,309,19.58,19.26,23.98992,0.125,50.22,57.51,33.35,35.1
"2016-07-07 08:10:00",243182,0.397,211.1,19.13,89.6,183.6821,0,870.6037,0,-0.58,3.08,241,19.56,19.25,26.27767,0.141,50.22,57.51,33.35,35.1
"2016-07-07 08:20:00",243183,0.585,206,19.11,92.2,342.03,0,870.6036,0,0.188,3.071,306,19.55,19.24,49.62871,0.144,50.22,57.51,33.35,35.1
"2016-07-07 08:30:00",243184,0.634,181.4,19.47,91.9,493.023,0,870.4376,0,0.291,3.068,230,19.51,19.22,74.16409,0.147,50.28,57.51,33.37,35.1
"2016-07-07 08:40:00",243185,0.653,165.4,20.2,85.1,706.6589,0,870.3852,0,0.484,3.063,213,19.55,19.23,106.227,0.148,50.28,57.51,33.37,35.1
"2016-07-07 08:50:00",243186,0.571,176.4,20.4,82.9,576.0613,0,870.3469,0,-0.062,3.067,203,19.52,19.19,85.26318,0.137,50.22,57.51,33.35,35.1
"2016-07-07 09:00:00",243187,0.496,132.3,20.54,81.6,538.1367,0,870.3005,0,0.396,3.064,203,19.5,19.16,79.98116,0.14,50.28,57.51,33.37,35.1
"2016-07-07 09:10:00",243188,0.61,185,20.7,82.4,514.4213,0,870.0941,0,0.338,3.063,203,19.49,19.15,75.12602,0.134,50.28,57.51,33.37,35.1
"2016-07-07 09:20:00",243189,0.59,124.6,20.91,79.5,769.4525,0,870.0983,0,0.6,3.058,210,19.47,19.15,116.3113,0.147,50.28,57.51,33.37,35.1
"2016-07-07 09:30:00",243190,0.612,161.2,21.31,76.12,768.8212,0,870.0941,0,0.78,3.054,203,19.46,19.14,116.1669,0.148,50.28,57.51,33.37,35.1
"2016-07-07 09:40:00",243191,0.564,56.07,21.58,76.45,681.5073,0,870.0941,0,-0.073,3.062,235,19.55,19.14,101.6275,0.146,50.28,57.51,33.37,35.1
"2016-07-07 09:50:00",243192,0.466,33.06,21.59,78.11,481.0523,0,870.0941,0,0.241,3.061,211,19.58,19.14,66.15804,0.127,50.22,57.51,33.35,35.1
"2016-07-07 10:00:00",243193,0.323,0.382,20.96,80.9,370.095,0,870.2288,0,0,3.064,230,19.61,19.06,51.89526,0.133,50.22,57.51,33.35,35.1
"2016-07-07 10:10:00",243194,0.256,20.68,21.4,79.27,407.1606,0,870.2983,0,-0.254,3.066,198,19.56,19.02,56.7859,0.138,50.22,57.51,33.35,35.1
"2016-07-07 10:20:00",243195,0.175,46.81,21.27,80.3,252.4388,0,870.292,0,0.161,3.062,198,19.54,19.02,32.81763,0.129,50.22,57.45,33.35,35.09
"2016-07-07 10:30:00",243196,0.289,32.5,21,84.1,160.4425,0,870.3467,0,0.406,3.061,205,19.65,19.04,19.67997,0.122,50.22,57.51,33.35,35.1
"2016-07-07 10:40:00",243197,0.205,4.78,20.71,86.5,247.0287,0,870.4352,0,0.693,3.058,205,19.67,19.06,34.74207,0.134,50.22,57.45,33.35,35.09
"2016-07-07 10:50:00",243198,0.527,137.4,21.41,82.4,831.9926,0,870.4436,0,0.685,3.054,225,19.7,19.04,129.9463,0.152,50.22,57.51,33.35,35.1
"2016-07-07 11:00:00",243199,0.202,238.7,22.42,78.4,715.5175,0,870.3636,0,-2.012,3.077,200,19.72,18.99,104.8033,0.142,50.22,57.45,33.35,35.09
"2016-07-07 11:10:00",243200,0.214,59.12,22.13,76.97,337.8281,0,870.3467,0,-0.377,3.064,214,19.7,18.99,41.70555,0.121,50.17,57.45,33.34,35.09
"2016-07-07 11:20:00",243201,0.289,313.7,21.36,79.36,242.0808,0,870.3088,0,-1.399,3.077,230,19.83,19.04,29.35171,0.12,50.22,57.45,33.35,35.09
"2016-07-07 11:30:00",243202,0.295,359.4,21.11,79.45,151.4554,0,870.3405,0,-0.775,3.071,201,19.85,19.06,17.47169,0.113,50.22,57.45,33.35,35.09
"2016-07-07 11:40:00",243203,0.344,355.6,20.71,85.6,126.2576,0,870.3426,0,-0.675,3.073,200,19.92,19.09,16.06609,0.124,50.17,57.45,33.34,35.09
"2016-07-07 11:50:00",243204,0.229,1.96,21.16,84.8,763.3212,0,870.3467,0,-0.913,3.066,202,19.94,19.08,121.0538,0.153,50.17,57.45,33.34,35.09
"2016-07-07 12:00:00",243205,0.28,120.5,22.35,74.96,542.9846,0,870.2331,0,-1.985,3.077,226,20,19.02,78.31837,0.139,50.17,57.45,33.34,35.09
"2016-07-07 12:10:00",243206,0.765,60.28,22.13,76.31,633.7076,0,870.1004,0,0.128,3.056,254,20.07,19.04,96.56255,0.143,50.11,57.45,33.33,35.09
"2016-07-07 12:20:00",243207,0.379,227.7,22.53,76.22,652.9476,0,870.0898,0,-1.46,3.069,256,20.07,19.02,95.58139,0.137,50.17,57.45,33.34,35.09
"2016-07-07 12:30:00",243208,0.427,284.8,22.83,67.79,603.0972,0,869.8751,0,-0.814,3.061,246,20.11,19,88.17915,0.137,50.11,57.45,33.33,35.09
"2016-07-07 12:40:00",243209,0.46,33.93,22.93,70.77,698.8064,0,869.8415,0,1.187,3.04,227,20.14,18.97,107.5182,0.143,50.11,57.39,33.33,35.07
"2016-07-07 12:50:00",243210,0.37,244.9,23.87,65.2,1026.312,0,869.7804,0,-3.102,3.078,221,20.21,18.97,158.8869,0.149,50.11,57.39,33.33,35.07
"2016-07-07 13:00:00",243211,0.487,250.6,23.92,63.67,1072.347,0,869.6099,0,-0.355,3.053,205,20.29,18.99,168.4787,0.157,50.11,57.45,33.33,35.09
"2016-07-07 13:10:00",243212,0.46,325.7,24.3,64.28,1036.393,0,869.5488,0,-2.604,3.073,206,20.33,18.99,160.6598,0.155,50.06,57.39,33.31,35.07
"2016-07-07 13:20:00",243213,0.718,284.3,24.03,61.77,930.6221,0,869.4983,0,-3.539,3.084,238,20.37,19.01,142.3739,0.149,50.06,57.39,33.31,35.07
"2016-07-07 13:30:00",243214,0.626,358.8,23.86,60.69,845.9572,0,869.3614,0,-4.27,3.091,198,20.49,18.97,130.1378,0.146,50.06,57.33,33.31,35.06
"2016-07-07 13:40:00",243215,0.205,287.4,23.35,65.61,455.8403,0,869.374,0,-1.381,3.066,226,20.54,18.97,63.01379,0.112,50.01,57.39,33.3,35.07
"2016-07-07 13:50:00",243216,0.373,287.9,23.65,64.72,882.6732,0,869.3488,0,-1.641,3.064,214,20.64,18.98,140.904,0.152,50.01,57.39,33.3,35.07
"2016-07-07 14:00:00",243217,0.532,288,24.58,60.88,1066.599,0,869.3361,0,1.071,3.034,293,20.73,19.05,175.5324,0.165,50.01,57.39,33.3,35.07
"2016-07-07 14:10:00",243218,0.384,271.2,24.55,63.2,517.8391,0,869.3193,0,-2.137,3.071,236,20.8,19.05,70.14706,0.111,49.95,57.33,33.28,35.06
"2016-07-07 14:20:00",243219,0.799,19.75,23.19,68.38,370.1932,0,869.3298,0,-0.189,3.055,230,20.93,19.04,51.54296,0.128,49.95,57.39,33.28,35.07
"2016-07-07 14:30:00",243220,0.439,265.8,23.82,64.89,930.4439,0,869.2751,0,0.13,3.047,355,21,19.06,150.3725,0.159,49.95,57.33,33.28,35.06
"2016-07-07 14:40:00",243221,1.078,288.6,23.78,61.85,940.7871,0,869.1614,0,0.468,3.046,243,21.11,19.09,148.2849,0.157,49.95,57.33,33.28,35.06
"2016-07-07 14:50:00",243222,0.667,321.5,23.79,62.58,844.9702,0,869.0834,0,-0.667,3.056,206,21.21,19.09,118.603,0.14,49.9,57.33,33.27,35.06
"2016-07-07 15:00:00",243223,0.68,280.6,23.6,62.07,818.9464,0,869.0814,0,2.264,3.029,270,21.3,19.06,101.1957,0.124,49.9,57.33,33.27,35.06
"2016-07-07 15:10:00",243224,0.384,259.9,24.06,63.21,816.8124,0,869.0561,0,-2.57,3.072,213,21.37,19.11,82.83772,0.101,49.9,57.33,33.27,35.06
"2016-07-07 15:20:00",243225,0.283,265,24.22,62,682.192,0,869.0687,0,-0.556,3.054,222,21.42,19.11,54.38454,0.078,49.84,57.27,33.26,35.05
"2016-07-07 15:30:00",243226,0.483,246.7,23.56,62.88,436.7208,0,869.0898,0,-2.577,3.077,217,21.48,19.14,27.70794,0.064,49.84,57.27,33.26,35.05
"2016-07-07 15:40:00",243227,0.453,339.3,23.24,62.57,202.0271,0,869.1235,0,0.814,3.044,344,21.61,19.14,32.99644,0.161,49.84,57.27,33.26,35.05
"2016-07-07 15:50:00",243228,0.586,357.2,23.62,62.06,301.2017,0,869.3046,0,0.141,3.05,335,21.7,19.14,49.25627,0.162,49.79,57.27,33.24,35.05
"2016-07-07 16:00:00",243229,0.318,309.7,23.09,66.04,160.095,0,869.3214,0,-2.092,3.075,220,21.76,19.19,26.72338,0.173,49.84,57.22,33.26,35.03
"2016-07-07 16:10:00",243230,0.395,225.8,22.81,67.02,120.8363,0,869.1761,0,-2.931,3.083,209,21.87,19.19,14.68054,0.152,49.79,57.22,33.24,35.03
"2016-07-07 16:20:00",243231,0.426,226.8,22.56,68.73,76.3326,0,869.1277,0,0.894,3.048,276,21.95,19.18,11.92299,0.181,49.79,57.22,33.24,35.03
"2016-07-07 16:30:00",243232,0.474,251.1,22.51,67.67,72.25861,0,869.0834,0,-0.168,3.06,220,22.01,19.27,11.49124,0.176,49.79,57.22,33.24,35.03
"2016-07-07 16:40:00",243233,0.43,232.5,22.36,69.78,56.78926,0,869.2856,0,0.522,3.052,226,22.06,19.31,10.58589,0.188,49.73,57.22,33.23,35.03
"2016-07-07 16:50:00",243234,0.294,241.1,22.43,66.41,122.6448,0,869.3172,0,0.346,3.053,284,22.14,19.3,22.59654,0.185,49.73,57.22,33.23,35.03
"2016-07-07 17:00:00",243235,0.335,179.2,22.45,67.92,122.6502,0,869.3361,0,1.373,3.044,320,22.17,19.27,19.82714,0.159,49.73,57.22,33.23,35.03
"2016-07-07 17:10:00",243236,0.414,262.6,22.29,66.41,82.75806,0,869.3404,0,-1.342,3.071,221,22.28,19.3,12.34807,0.144,49.73,57.16,33.23,35.02
"2016-07-07 17:20:00",243237,0.496,108.3,22.09,66.39,56.58445,0,869.3361,0,0.077,3.058,227,22.29,19.33,8.39648,0.148,49.73,57.16,33.23,35.02
"2016-07-07 17:30:00",243238,0.553,88.3,22,69.52,36.95137,0,869.3404,0,-0.002,3.061,232,22.29,19.41,4.660492,0.122,49.68,57.16,33.22,35.02
"2016-07-07 17:40:00",243239,0.189,149.7,21.61,70.73,29.92536,0,869.3467,0,-0.14,3.063,207,22.29,19.49,3.251019,0.108,49.73,57.16,33.23,35.02
"2016-07-07 17:50:00",243240,0.23,55.97,21.36,73.38,33.52488,0,869.3909,0,0.325,3.059,208,22.29,19.5,4.05049,0.121,49.73,57.16,33.23,35.02
"2016-07-07 18:00:00",243241,0.35,94.3,21.45,72.76,35.98034,0,869.3888,0,-0.26,3.066,209,22.28,19.48,4.607399,0.127,49.68,57.1,33.22,35.01
"2016-07-07 18:10:00",243242,0.387,58.64,21.06,75.1,35.54407,0,869.5878,0,-0.359,3.069,203,22.28,19.45,4.539187,0.127,49.68,57.1,33.22,35.01
"2016-07-07 18:20:00",243243,0.346,43.44,21.1,73.15,36.75086,0,869.5898,0,-1.442,3.076,200,22.29,19.48,5.414497,0.148,49.62,57.1,33.2,35.01
"2016-07-07 18:30:00",243244,0.31,43.54,21.03,74.66,28.40878,0,869.6569,0,-1.196,3.077,200,22.33,19.53,3.967197,0.139,49.68,57.1,33.22,35.01
"2016-07-07 18:40:00",243245,0.242,294.3,21.03,72.26,25.65095,0,869.7203,0,-1.311,3.076,227,22.35,19.6,4.111332,0.16,49.62,57.1,33.2,35.01
"2016-07-07 18:50:00",243246,0.511,296.4,21.08,69.48,19.7251,0,869.9142,0,-1.091,3.075,261,22.36,19.58,3.410415,0.173,49.62,57.1,33.2,35.01
"2016-07-07 19:00:00",243247,0.204,2.071,20.61,72.38,9.361555,0,870.0781,0,-1.845,3.085,251,22.36,19.61,1.42481,0.149,49.62,57.04,33.2,34.99
"2016-07-07 19:10:00",243248,0.095,359.2,20.38,73.11,1.43056,0,870.0612,0,-2.708,3.094,213,22.27,19.64,0.2425198,0.073,49.62,57.04,33.2,34.99
"2016-07-07 19:20:00",243249,0.449,303,20.51,73.34,1.312667,0,870.0638,0,-3.865,3.104,186,22.31,19.67,0.8526159,0.634,49.62,57.04,33.2,34.99
"2016-07-07 19:30:00",243250,0.434,292.4,20.52,73.99,0,0,870.028,0,-4.497,3.114,185,22.32,19.71,0.1629451,0,49.62,57.04,33.2,34.99
"2016-07-07 19:40:00",243251,0.134,170,18.99,86.1,0,0,869.9622,0,-3.55,3.112,190,22.29,19.71,0,0,49.57,57.04,33.19,34.99
"2016-07-07 19:50:00",243252,0.198,169.9,18.56,93,0,0,869.9962,0,-1.594,3.091,238,22.24,19.77,0,0,49.62,57.04,33.2,34.99
"2016-07-07 20:00:00",243253,0.067,134,18.58,92.9,0,0,870.1284,0,-2.39,3.101,225,22.26,19.81,0,0,49.57,57.04,33.19,34.99
"2016-07-07 20:10:00",243254,0.271,154.8,18.21,99.1,0,0,870.1187,0,-3.892,3.116,185,22.17,19.84,0,0,49.62,57.04,33.2,34.99
"2016-07-07 20:20:00",243255,0.164,196.4,18.53,94,0,0,870.2701,0,-3.678,3.113,190,22.15,19.84,0.4320077,0,49.57,57.04,33.19,34.99
"2016-07-07 20:30:00",243256,0.115,166.2,18.32,97.8,0,0,870.3991,0,-2.914,3.107,201,22.13,19.8,0.1023176,0,49.57,57.04,33.19,34.99
"2016-07-07 20:40:00",243257,0.155,167.4,18.11,99.8,0,0,870.6385,0,-3.748,3.116,190,22.06,19.85,0.03031633,0,49.57,57.04,33.19,34.99
"2016-07-07 20:50:00",243258,0.071,170.3,18.23,95.5,0,0,870.6667,0,-2.7,3.104,220,22.05,19.9,0.3410587,0,49.62,57.04,33.2,34.99
"2016-07-07 21:00:00",243259,0.063,96.1,18.49,90.3,0,0,870.6791,0,-3.988,3.116,178,21.99,19.92,0.5911684,0,49.57,57.04,33.19,34.99
"2016-07-07 21:10:00",243260,0.29,258.3,19.13,83,0.003930284,0,870.7332,0,-3.647,3.109,198,22,19.92,1.356656,0.177,49.57,56.98,33.19,34.98
"2016-07-07 21:20:00",243261,0.454,137.8,18.96,83.1,0,0,870.7963,0,-3.288,3.106,201,21.96,19.89,0.4888508,0,49.51,56.98,33.18,34.98
"2016-07-07 21:30:00",243262,0.633,175.7,18.7,84.5,0,0,870.6765,0,-2.939,3.104,204,21.9,19.92,0.1477921,0,49.57,56.98,33.19,34.98
"2016-07-07 21:40:00",243263,0.904,182.8,19.08,79.18,0,0,870.6748,0,-1.61,3.09,234,21.9,19.97,0.4585344,0,49.51,56.98,33.18,34.98
"2016-07-07 21:50:00",243264,0.84,189.1,19.17,78.73,0,0,870.6807,0,-4.164,3.114,190,21.8,19.97,0.2084248,0,49.51,56.98,33.18,34.98
"2016-07-07 22:00:00",243265,0.549,199.2,19.44,75.28,0,0,870.6691,0,-3.321,3.104,196,21.8,19.97,0.3524273,0,49.51,56.98,33.18,34.98
"2016-07-07 22:10:00",243266,0.374,197.8,19.62,73.82,0,0,870.6774,0,-3.934,3.112,187,21.72,19.99,0.3562168,0,49.51,56.98,33.18,34.98
"2016-07-07 22:20:00",243267,0.606,207.4,19.44,73.65,0,0,870.6479,0,-0.519,3.079,240,21.69,19.98,0.1326339,0,49.57,56.98,33.19,34.98
"2016-07-07 22:30:00",243268,0.393,189.9,18.8,78.3,0,0,870.6615,0,-0.369,3.081,251,21.65,19.97,0,0,49.51,56.93,33.18,34.97
"2016-07-07 22:40:00",243269,0.481,213.3,18.43,80.3,0,0,870.6725,0,-0.736,3.085,236,21.66,19.97,0,0,49.57,56.93,33.19,34.97
"2016-07-07 22:50:00",243270,0.467,168.6,18.53,78.94,0,0,870.5975,0,-0.34,3.083,229,21.65,19.97,0.06821146,0,49.57,56.93,33.19,34.97
"2016-07-07 23:00:00",243271,0.344,124.5,17.81,84.8,0,0,870.4407,0,-2.316,3.104,212,21.57,19.98,0,0,49.57,56.93,33.19,34.97
"2016-07-07 23:10:00",243272,0.503,174,17.66,86.1,0,0,870.4278,0,-2.984,3.11,192,21.54,20,0.03031633,0,49.57,56.93,33.19,34.97
"2016-07-07 23:20:00",243273,0.468,165.4,17.78,84.7,0,0,870.4338,0,-0.65,3.086,254,21.46,20.04,0.2501097,0,49.57,56.93,33.19,34.97
"2016-07-07 23:30:00",243274,0.709,183,18.35,78.55,0,0,870.233,0,-2.342,3.101,212,21.49,20.06,0.74275,0,49.57,56.87,33.19,34.95
"2016-07-07 23:40:00",243275,0.925,176.5,18.42,78.42,0,0,870.1731,0,-2.39,3.101,210,21.39,20.07,0.3486378,0,49.51,56.87,33.18,34.95
"2016-07-07 23:50:00",243276,1.337,178.4,18.59,77.17,0,0,870.0807,0,-2.438,3.101,212,21.36,20.08,0.231162,0,49.51,56.87,33.18,34.95
